PRAETORIAN SDA_610

Last updated on Thu Aug 20 2026 00:03:39 GMT+0000 (Coordinated Universal Time)

1 65573U 25203J 26231.18587694 .00000062 00000+0 45602-4 0 9998 2 65573 81.3028 312.4704 0007235 37.0773 323.0882 13.83532146 47402
UTC large
Height (km)
Speed (km/s)
/
Latitude / Longitude
Inclination (degrees)
Orbital Period (minutes)
Azimuth
Elevation
Range (km)
Doppler Factor

Next 0 passes for location: London (51.5072 / 0.1276)

No passes found over London.
PRAETORIAN SDA_610